This is the latest recevied weather packets stored in our database for station/object 9W2CHF-2. If no packets are shown the sender has not sent any weather packets the latest 10 day(s).
| Time | Temp. | Humidity | Pressure | Rain* | Wind** | Luminosity | Snow |
|---|---|---|---|---|---|---|---|
| 1788369397 | 33.33° C | 59% | 1012.7 hPa | - | - | - | - |
| 1788368497 | 33.33° C | 59% | 1012.8 hPa | - | - | - | - |
| 1788367596 | 33.33° C | 59% | 1012.7 hPa | - | - | - | - |
| 1788366696 | 33.89° C | 57% | 1012.6 hPa | - | - | - | - |
| 1788365796 | 33.33° C | 55% | 1012.5 hPa | - | - | - | - |
| 1788364896 | 33.33° C | 56% | 1012.7 hPa | - | - | - | - |
| 1788364002 | 33.33° C | 56% | 1012.5 hPa | - | - | - | - |
| 1788363102 | 33.33° C | 56% | 1012.7 hPa | - | - | - | - |
| 1788362202 | 33.33° C | 55% | 1012.3 hPa | - | - | - | - |
| 1788361302 | 33.33° C | 54% | 1012.2 hPa | - | - | - | - |
| 1788360425 | 33.33° C | 51% | 1012 hPa | - | - | - | - |
| 1788359502 | 33.33° C | 48% | 1011.9 hPa | - | - | - | - |
| 1788358602 | 32.78° C | 44% | 1011.8 hPa | - | - | - | - |
| 1788357701 | 32.78° C | 45% | 1011.6 hPa | - | - | - | - |
| 1788356801 | 32.78° C | 44% | 1011.4 hPa | - | - | - | - |
| 1788355900 | 32.78° C | 45% | 1011.3 hPa | - | - | - | - |
| 1788355000 | 33.33° C | 44% | 1011.4 hPa | - | - | - | - |
| 1788354100 | 33.33° C | 45% | 1011.3 hPa | - | - | - | - |
| 1788353200 | 33.33° C | 45% | 1011.4 hPa | - | - | - | - |
| 1788352300 | 33.33° C | 46% | 1011.2 hPa | - | - | - | - |
| 1788351400 | 33.33° C | 47% | 1011.1 hPa | - | - | - | - |
| 1788350500 | 33.33° C | 47% | 1010.7 hPa | - | - | - | - |
| 1788349599 | 33.33° C | 48% | 1010.5 hPa | - | - | - | - |
| 1788348699 | 33.33° C | 49% | 1010.4 hPa | - | - | - | - |
| 1788347799 | 33.89° C | 48% | 1010.1 hPa | - | - | - | - |
* Rain since midnight (hover to see other rain measurements)
** Current wind speed in m/s (hover to see current wind gust speed)